Weather History for KBDN - May, 2013

Change the Weather History Date:

Saturday, May 25, 2013

  Actual Average (KRDM) Record (KRDM)
Temperature  
Mean Temperature 48 °F 54 °F  
Max Temperature 64 °F 70 °F 92 °F (1986)
Min Temperature 32 °F 38 °F 20 °F (1975)
Degree Days  
Heating Degree Days 17 12  
Month to date heating degree days 362  
Since 1 July heating degree days 6433  
Cooling Degree Days 0 0  
Month to date cooling degree days 0  
Year to date cooling degree days 0  
Moisture  
Dew Point 32 °F    
Average Humidity 57    
Maximum Humidity 93    
Minimum Humidity 26    
Precipitation  
Precipitation 0.00 in 0.04 in 0.59 in (1993)
Month to date precipitation 0.80  
Year to date precipitation 3.81  
Sea Level Pressure  
Sea Level Pressure 29.99 in    
Wind  
Wind Speed 4 mph (West)    
Max Wind Speed 14 mph    
Max Gust Speed 17 mph    
Visibility 10 miles    
Events      
T = Trace of Precipitation, MM = Missing Value Source: NWS Daily Summary

Daily Weather History Graph

Daily Weather History Graph

Search for Another Location

Airport or City:

Trip Planner

Search our weather history database for the weather conditions in past years. The results will help you decide how hot, cold, wet, or windy it might be!

Date:

Astronomy

May. 25, 2013 Rise Set
Actual Time 5:28 AM PDT 8:35 PM PDT
Civil Twilight 4:54 AM PDT 9:10 PM PDT
Nautical Twilight 4:09 AM PDT 9:54 PM PDT
Astronomical Twilight 3:16 AM PDT 10:48 PM PDT
Moon 9:28 PM PDT (5/25) 6:01 AM PDT (5/25)
Length of Visible Light 16h 15m
Length of Day
15h 06m
Waxing Gibbous, 99% of the Moon is Illuminated
May 25
Waxing Gibbous
May 31
Last Quarter
Jun 8
New
Jun 16
First Quarter
Jun 23
Full

Hourly Weather History & Observations

Time (PDT) Temp. Windchill Dew Point Humidity Pressure Visibility Wind Dir Wind Speed Gust Speed Precip Events Conditions
12:15 AM 37.4 °F 33.8 °F 30.2 °F 75% 30.03 in 10.0 mi West 4.6 mph - N/A   Clear
12:35 AM 37.4 °F - 32.0 °F 81% 30.03 in 10.0 mi Calm Calm - N/A   Clear
12:55 AM 35.6 °F - 32.0 °F 87% 30.03 in 10.0 mi Calm Calm - N/A   Clear
1:15 AM 35.6 °F - 30.2 °F 81% 30.03 in 10.0 mi Calm Calm - N/A   Clear
1:35 AM 35.6 °F - 32.0 °F 87% 30.03 in 10.0 mi Calm Calm - N/A   Clear
1:55 AM 33.8 °F - 30.2 °F 87% 30.03 in 10.0 mi Calm Calm - N/A   Clear
2:15 AM 33.8 °F 29.6 °F 30.2 °F 87% 30.03 in 10.0 mi SSW 4.6 mph - N/A   Clear
2:35 AM 32.0 °F - 30.2 °F 93% 30.03 in 10.0 mi Calm Calm - N/A   Clear
2:55 AM 32.0 °F 27.5 °F 30.2 °F 93% 30.03 in 10.0 mi SW 4.6 mph - N/A   Clear
3:15 AM 32.0 °F 28.7 °F 30.2 °F 93% 30.03 in 10.0 mi SW 3.5 mph - N/A   Clear
3:35 AM 32.0 °F 27.5 °F 28.4 °F 87% 30.03 in 10.0 mi SW 4.6 mph - N/A   Clear
3:55 AM 32.0 °F - 28.4 °F 87% 30.03 in 10.0 mi Calm Calm - N/A   Clear
4:15 AM 32.0 °F 28.7 °F 28.4 °F 87% 30.03 in 10.0 mi SSW 3.5 mph - N/A   Clear
4:35 AM 32.0 °F 26.4 °F 28.4 °F 87% 30.03 in 10.0 mi SSW 5.8 mph - N/A   Clear
4:55 AM 32.0 °F 28.7 °F 28.4 °F 87% 30.03 in 10.0 mi SSW 3.5 mph - N/A   Clear
5:15 AM 32.0 °F 26.4 °F 28.4 °F 87% 30.03 in 10.0 mi SSW 5.8 mph - N/A   Clear
5:35 AM 32.0 °F 26.4 °F 28.4 °F 87% 30.03 in 10.0 mi SSW 5.8 mph - N/A   Clear
5:55 AM 32.0 °F 26.4 °F 28.4 °F 87% 30.03 in 10.0 mi SSW 5.8 mph - N/A   Clear
6:15 AM 32.0 °F 26.4 °F 28.4 °F 87% 30.03 in 10.0 mi SSW 5.8 mph - N/A   Clear
6:35 AM 35.6 °F - 28.4 °F 75% 30.03 in 10.0 mi Calm Calm - N/A   Clear
6:55 AM 37.4 °F 34.9 °F 30.2 °F 75% 30.03 in 10.0 mi SSW 3.5 mph - N/A   Clear
7:15 AM 39.2 °F 35.9 °F 32.0 °F 75% 30.03 in 10.0 mi SSW 4.6 mph - N/A   Clear
7:35 AM 41.0 °F 37.1 °F 32.0 °F 70% 30.03 in 10.0 mi SSW 5.8 mph - N/A   Clear
7:55 AM 44.6 °F 40.7 °F 32.0 °F 61% 30.03 in 10.0 mi SSW 6.9 mph - N/A   Clear
8:15 AM 44.6 °F 40.2 °F 32.0 °F 61% 30.03 in 10.0 mi SW 8.1 mph - N/A   Clear
8:35 AM 46.4 °F 42.9 °F 32.0 °F 57% 30.03 in 10.0 mi SSW 6.9 mph - N/A   Clear
8:55 AM 46.4 °F 42.9 °F 32.0 °F 57% 30.02 in 10.0 mi SW 6.9 mph - N/A   Clear
9:15 AM 50.0 °F - 30.2 °F 47% 30.02 in 10.0 mi South 4.6 mph - N/A   Clear
9:35 AM 48.2 °F - 30.2 °F 50% 30.01 in 10.0 mi Calm Calm - N/A   Clear
9:55 AM 50.0 °F - 30.2 °F 47% 30.01 in 10.0 mi West 3.5 mph - N/A   Clear
10:15 AM 53.6 °F - 28.4 °F 38% 30.00 in 10.0 mi WSW 3.5 mph - N/A   Clear
10:35 AM 53.6 °F - 26.6 °F 35% 30.00 in 10.0 mi Calm Calm - N/A   Clear
10:55 AM 53.6 °F - 28.4 °F 38% 29.99 in 10.0 mi NNW 4.6 mph - N/A   Clear
11:15 AM 55.4 °F - 26.6 °F 33% 29.99 in 10.0 mi West 5.8 mph - N/A   Clear
11:35 AM 55.4 °F - 26.6 °F 33% 29.99 in 10.0 mi Calm Calm - N/A   Clear
11:55 AM 57.2 °F - 26.6 °F 31% 29.99 in 10.0 mi South 3.5 mph - N/A   Clear
12:15 PM 57.2 °F - 26.6 °F 31% 29.98 in 10.0 mi SW 5.8 mph - N/A   Clear
12:35 PM 57.2 °F - 26.6 °F 31% 29.98 in 10.0 mi NNE 5.8 mph - N/A   Clear
12:55 PM 59.0 °F - 26.6 °F 29% 29.98 in 10.0 mi North 4.6 mph - N/A   Clear
1:15 PM 60.8 °F - 26.6 °F 27% 29.97 in 10.0 mi Calm Calm - N/A   Clear
1:35 PM 59.0 °F - 28.4 °F 31% 29.97 in 10.0 mi Calm Calm - N/A   Clear
1:55 PM 60.8 °F - 28.4 °F 29% 29.96 in 10.0 mi Calm Calm - N/A   Clear
2:15 PM 62.6 °F - 28.4 °F 27% 29.96 in 10.0 mi North 5.8 mph - N/A   Clear
2:35 PM 62.6 °F - 26.6 °F 26% 29.96 in 10.0 mi Calm Calm - N/A   Clear
2:55 PM 64.4 °F - 28.4 °F 26% 29.95 in 10.0 mi NW 4.6 mph - N/A   Clear
3:15 PM 64.4 °F - 28.4 °F 26% 29.95 in 10.0 mi NNW 5.8 mph - N/A   Scattered Clouds
3:35 PM 64.4 °F - 28.4 °F 26% 29.94 in 10.0 mi NE 8.1 mph - N/A   Mostly Cloudy
3:55 PM 64.4 °F - 28.4 °F 26% 29.95 in 10.0 mi NW 6.9 mph - N/A   Mostly Cloudy
4:15 PM 62.6 °F - 30.2 °F 30% 29.94 in 10.0 mi East 8.1 mph - N/A   Scattered Clouds
4:35 PM 64.4 °F - 30.2 °F 28% 29.94 in 10.0 mi North 5.8 mph - N/A   Partly Cloudy
4:55 PM 64.4 °F - 32.0 °F 30% 29.94 in 10.0 mi NNW 12.7 mph 17.3 mph N/A   Partly Cloudy
5:15 PM 64.4 °F - 32.0 °F 30% 29.94 in 10.0 mi North 9.2 mph - N/A   Clear
5:35 PM 62.6 °F - 32.0 °F 32% 29.94 in 10.0 mi NNW 13.8 mph - N/A   Partly Cloudy
5:55 PM 62.6 °F - 32.0 °F 32% 29.94 in 10.0 mi NNW 12.7 mph - N/A   Clear
6:15 PM 62.6 °F - 32.0 °F 32% 29.93 in 10.0 mi NNW 11.5 mph 17.3 mph N/A   Clear
6:35 PM 60.8 °F - 32.0 °F 34% 29.94 in 10.0 mi North 9.2 mph - N/A   Clear
6:55 PM 60.8 °F - 32.0 °F 34% 29.94 in 10.0 mi North 10.4 mph - N/A   Clear
7:15 PM 59.0 °F - 33.8 °F 39% 29.94 in 10.0 mi NW 13.8 mph - N/A   Partly Cloudy
7:35 PM 59.0 °F - 33.8 °F 39% 29.95 in 10.0 mi NW 10.4 mph - N/A   Partly Cloudy
7:55 PM 57.2 °F - 35.6 °F 44% 29.95 in 10.0 mi NW 11.5 mph 17.3 mph N/A   Partly Cloudy
8:15 PM 55.4 °F - 37.4 °F 51% 29.95 in 10.0 mi NW 9.2 mph - N/A   Clear
8:35 PM 55.4 °F - 37.4 °F 51% 29.96 in 10.0 mi West 11.5 mph - N/A   Partly Cloudy
8:55 PM 53.6 °F - 39.2 °F 58% 29.97 in 10.0 mi WNW 8.1 mph - N/A   Partly Cloudy
9:15 PM 51.8 °F - 41.0 °F 67% 29.97 in 10.0 mi NW 9.2 mph - N/A   Partly Cloudy
9:35 PM 50.0 °F - 41.0 °F 71% 29.97 in 10.0 mi WNW 6.9 mph - N/A   Clear
9:55 PM 50.0 °F - 42.8 °F 76% 29.97 in 10.0 mi NNW 5.8 mph - N/A   Clear
10:15 PM 48.2 °F - 42.8 °F 82% 29.97 in 10.0 mi Calm Calm - N/A   Partly Cloudy
10:35 PM 48.2 °F - 41.0 °F 76% 29.97 in 10.0 mi North 4.6 mph - N/A   Scattered Clouds
10:55 PM 48.2 °F - 41.0 °F 76% 29.97 in 10.0 mi Calm Calm - N/A   Partly Cloudy
11:15 PM 48.2 °F - 41.0 °F 76% 29.97 in 10.0 mi Calm Calm - N/A   Clear
11:35 PM 46.4 °F - 42.8 °F 87% 29.97 in 10.0 mi Calm Calm - N/A   Clear
11:55 PM 46.4 °F - 42.8 °F 87% 29.97 in 10.0 mi Calm Calm - N/A   Clear